User: anonymous   Login
Location: Unspecified
(0.0000°N, 0.0000°E)
Time: 08:51:02
(UTC+00:00)
Language:

STARLINK-4585 - Orbit

View from above orbital plane
View from above orbital plane
View from above satellite
View from above satellite

Ground track
Ground track

The orbit is defined by the following mean orbital elements,

1 53567U          26145.52788201 +.00000000 +00000-0 +13037-4 0 00008
2 53567  53.2121  69.2830 0001083 100.5173 259.5941 15.08835278    01
Epoch (UTC): 25 May 2026 12:40:09
Eccentricity: 0.0001083
inclination: 53.2121°
perigee height: 539 km
apogee height: 541 km
right ascension of ascending node: 69.2830°
argument of perigee: 100.5173°
revolutions per day: 15.08835278
mean anomaly at epoch: 259.5941°

The dashed part of the orbit path shows where the satellite is in the earth's shadow,  

DLR